| time (UTC) | temp F | wind direction | speed MPH | gust MPH | rain 1hr in | rain 24hr in | rain mn in | humidity % | barometer mb |
| 20260507191523 | 57 | 255 | 5.0 | 16.0 | 0.01 | 0.08 | 0.05 | 96 | 999.2 |
| 20260507191022 | 57 | 237 | 5.0 | 13.0 | 0.01 | 0.08 | 0.05 | 96 | 999.3 |
| 20260507190520 | 57 | 243 | 5.0 | 13.0 | 0.01 | 0.08 | 0.05 | 96 | 999.4 |
| 20260507190018 | 57 | 252 | 5.0 | 13.0 | 0.01 | 0.08 | 0.05 | 97 | 999.4 |
| 20260507185536 | 57 | 233 | 4.0 | 11.0 | 0.01 | 0.08 | 0.05 | 97 | 999.4 |
| 20260507185034 | 57 | 241 | 4.0 | 9.0 | 0.02 | 0.08 | 0.05 | 98 | 999.3 |
| 20260507184533 | 57 | 223 | 4.0 | 9.0 | 0.02 | 0.08 | 0.05 | 98 | 999.4 |
| 20260507184030 | 57 | 255 | 2.0 | 8.0 | 0.02 | 0.08 | 0.05 | 99 | 999.4 |
| 20260507183529 | 56 | 236 | 3.0 | 8.0 | 0.02 | 0.08 | 0.05 | 99 | 999.3 |
| 20260507183027 | 56 | 245 | 4.0 | 11.0 | 0.02 | 0.08 | 0.05 | 99 | 999.3 |
| 20260507182525 | 56 | 244 | 5.0 | 11.0 | 0.04 | 0.08 | 0.05 | 99 | 999.4 |
| 20260507182023 | 56 | 255 | 5.0 | 11.0 | 0.04 | 0.08 | 0.05 | 99 | 999.4 |
| 20260507181521 | 56 | 256 | 6.0 | 15.0 | 0.04 | 0.07 | 0.04 | 99 | 999.4 |
| 20260507181018 | 56 | 246 | 5.0 | 14.0 | 0.04 | 0.07 | 0.04 | 99 | 999.4 |
| 20260507180517 | 56 | 254 | 7.0 | 15.0 | 0.04 | 0.07 | 0.04 | 99 | 999.5 |
| 20260507180035 | 56 | 261 | 6.0 | 11.0 | 0.04 | 0.07 | 0.04 | 99 | 999.3 |
| 20260507175534 | 56 | 259 | 6.0 | 11.0 | 0.04 | 0.07 | 0.04 | 99 | 999.1 |
| 20260507175032 | 56 | 253 | 5.0 | 10.0 | 0.04 | 0.07 | 0.04 | 99 | 999.1 |
| 20260507174530 | 56 | 253 | 4.0 | 8.0 | 0.04 | 0.07 | 0.04 | 99 | 999.0 |
| 20260507174028 | 56 | 263 | 4.0 | 9.0 | 0.04 | 0.07 | 0.04 | 99 | 999.0 |
| 20260507173526 | 56 | 249 | 4.0 | 9.0 | 0.03 | 0.06 | 0.03 | 99 | 999.0 |
| 20260507173024 | 56 | 249 | 5.0 | 13.0 | 0.03 | 0.06 | 0.03 | 99 | 999.0 |
| 20260507172522 | 56 | 252 | 5.0 | 13.0 | 0.02 | 0.05 | 0.02 | 98 | 999.2 |
| 20260507172021 | 56 | 255 | 5.0 | 9.0 | 0.01 | 0.04 | 0.01 | 97 | 999.3 |
| 20260507171519 | 56 | 252 | 6.0 | 11.0 | 0.00 | 0.03 | 0.00 | 96 | 999.5 |
| 20260507171017 | 56 | 247 | 6.0 | 11.0 | 0.00 | 0.03 | 0.00 | 95 | 999.3 |
| 20260507170535 | 56 | 257 | 7.0 | 15.0 | 0.00 | 0.03 | 0.00 | 93 | 999.1 |
| 20260507170034 | 57 | 259 | 7.0 | 19.0 | 0.00 | 0.03 | 0.00 | 92 | 999.1 |
| 20260507165532 | 57 | 254 | 6.0 | 14.0 | 0.00 | 0.03 | 0.00 | 91 | 999.0 |
| 20260507165030 | 57 | 250 | 3.0 | 9.0 | 0.00 | 0.03 | 0.00 | 90 | 999.2 |
| 20260507164529 | 57 | 251 | 3.0 | 9.0 | 0.00 | 0.03 | 0.00 | 90 | 999.3 |
| 20260507164026 | 57 | 253 | 6.0 | 11.0 | 0.00 | 0.03 | 0.00 | 90 | 999.3 |
| 20260507163525 | 57 | 244 | 6.0 | 11.0 | 0.00 | 0.03 | 0.00 | 90 | 999.6 |
| 20260507163024 | 57 | 248 | 7.0 | 15.0 | 0.00 | 0.03 | 0.00 | 90 | 999.5 |
| 20260507162521 | 57 | 252 | 7.0 | 18.0 | 0.00 | 0.03 | 0.00 | 89 | 999.6 |
| 20260507162020 | 57 | 259 | 6.0 | 10.0 | 0.00 | 0.03 | 0.00 | 89 | 999.5 |
| 20260507161517 | 57 | 248 | 6.0 | 10.0 | 0.00 | 0.03 | 0.00 | 89 | 999.4 |
| 20260507161017 | 57 | 250 | 6.0 | 14.0 | 0.00 | 0.03 | 0.00 | 89 | 999.5 |
| 20260507160535 | 57 | 247 | 4.0 | 10.0 | 0.00 | 0.03 | 0.00 | 89 | 999.6 |
| 20260507160033 | 57 | 260 | 5.0 | 11.0 | 0.00 | 0.03 | 0.00 | 89 | 999.4 |
| 20260507155531 | 57 | 257 | 6.0 | 14.0 | 0.00 | 0.03 | 0.00 | 89 | 999.3 |
| 20260507155030 | 57 | 259 | 6.0 | 11.0 | 0.00 | 0.03 | 0.00 | 89 | 999.2 |
| 20260507154527 | 57 | 255 | 6.0 | 13.0 | 0.00 | 0.03 | 0.00 | 89 | 999.5 |
| 20260507154026 | 57 | 253 | 6.0 | 11.0 | 0.00 | 0.03 | 0.00 | 88 | 999.7 |
| 20260507153525 | 57 | 242 | 4.0 | 8.0 | 0.00 | 0.03 | 0.00 | 88 | 999.5 |
| 20260507153023 | 57 | 250 | 4.0 | 9.0 | 0.00 | 0.03 | 0.00 | 88 | 999.4 |
| 20260507152520 | 57 | 250 | 6.0 | 10.0 | 0.00 | 0.03 | 0.00 | 88 | 999.3 |
| 20260507152019 | 57 | 258 | 6.0 | 11.0 | 0.00 | 0.03 | 0.00 | 87 | 999.2 |
| 20260507151517 | 57 | 241 | 4.0 | 9.0 | 0.00 | 0.03 | 0.00 | 89 | 999.3 |
| 20260507151036 | 57 | 253 | 6.0 | 11.0 | 0.00 | 0.03 | 0.00 | 89 | 999.6 |
| 20260507150534 | 57 | 256 | 6.0 | 14.0 | 0.00 | 0.03 | 0.00 | 88 | 999.7 |
| 20260507150032 | 57 | 255 | 4.0 | 10.0 | 0.00 | 0.03 | 0.00 | 89 | 999.6 |
| 20260507145530 | 57 | 253 | 5.0 | 11.0 | 0.00 | 0.03 | 0.00 | 88 | 999.6 |
| 20260507145028 | 57 | 259 | 4.0 | 11.0 | 0.00 | 0.03 | 0.00 | 88 | 999.7 |
| 20260507144527 | 57 | 249 | 5.0 | 13.0 | 0.00 | 0.03 | 0.00 | 88 | 999.7 |
| 20260507144024 | 57 | 225 | 5.0 | 14.0 | 0.00 | 0.03 | 0.00 | 88 | 999.9 |
| 20260507143523 | 57 | 246 | 5.0 | 11.0 | 0.00 | 0.03 | 0.00 | 87 | 999.9 |
| 20260507143021 | 57 | 240 | 5.0 | 15.0 | 0.00 | 0.03 | 0.00 | 87 | 999.8 |
| 20260507142519 | 57 | 234 | 5.0 | 13.0 | 0.00 | 0.03 | 0.00 | 89 | 999.9 |
| 20260507142018 | 56 | 237 | 4.0 | 11.0 | 0.00 | 0.03 | 0.00 | 89 | 1000.1 |
| 20260507141517 | 56 | 247 | 5.0 | 16.0 | 0.00 | 0.03 | 0.00 | 90 | 999.9 |
| 20260507141035 | 55 | 244 | 7.0 | 19.0 | 0.00 | 0.03 | 0.00 | 90 | 999.8 |
| 20260507140533 | 55 | 253 | 6.0 | 14.0 | 0.00 | 0.03 | 0.00 | 90 | 999.7 |
| 20260507140031 | 55 | 257 | 6.0 | 13.0 | 0.00 | 0.03 | 0.00 | 90 | 999.7 |
| 20260507135529 | 55 | 259 | 7.0 | 15.0 | 0.00 | 0.03 | 0.00 | 89 | 999.7 |
| 20260507135027 | 55 | 254 | 6.0 | 17.0 | 0.00 | 0.03 | 0.00 | 89 | 999.7 |
| 20260507134526 | 55 | 249 | 5.0 | 15.0 | 0.00 | 0.03 | 0.00 | 89 | 999.4 |
| 20260507134023 | 55 | 256 | 6.0 | 14.0 | 0.00 | 0.03 | 0.00 | 89 | 999.1 |
| 20260507133523 | 55 | 247 | 7.0 | 15.0 | 0.00 | 0.03 | 0.00 | 89 | 998.9 |
| 20260507133021 | 55 | 256 | 5.0 | 13.0 | 0.00 | 0.03 | 0.00 | 89 | 999.0 |
| 20260507132518 | 55 | 239 | 7.0 | 15.0 | 0.00 | 0.03 | 0.00 | 90 | 998.9 |
| 20260507132017 | 54 | 255 | 9.0 | 19.0 | 0.00 | 0.03 | 0.00 | 91 | 998.9 |
| 20260507131536 | 54 | 237 | 5.0 | 13.0 | 0.00 | 0.03 | 0.00 | 92 | 999.0 |
| 20260507131034 | 53 | 260 | 5.0 | 16.0 | 0.00 | 0.03 | 0.00 | 92 | 998.9 |
| 20260507130532 | 53 | 259 | 7.0 | 15.0 | 0.00 | 0.03 | 0.00 | 92 | 998.8 |
| 20260507130030 | 53 | 264 | 9.0 | 17.0 | 0.00 | 0.03 | 0.00 | 92 | 999.1 |
| 20260507125528 | 53 | 247 | 8.0 | 18.0 | 0.00 | 0.03 | 0.00 | 92 | 999.1 |
| 20260507125026 | 53 | 257 | 9.0 | 18.0 | 0.00 | 0.03 | 0.00 | 92 | 999.1 |
| 20260507124524 | 54 | 252 | 9.0 | 23.0 | 0.00 | 0.03 | 0.00 | 91 | 999.3 |
| 20260507124022 | 54 | 253 | 8.0 | 18.0 | 0.00 | 0.03 | 0.00 | 91 | 999.5 |
| 20260507123520 | 54 | 255 | 9.0 | 16.0 | 0.00 | 0.03 | 0.00 | 91 | 999.6 |
| 20260507123018 | 54 | 256 | 6.0 | 13.0 | 0.00 | 0.03 | 0.00 | 91 | 999.8 |
| 20260507122516 | 54 | 254 | 5.0 | 11.0 | 0.00 | 0.03 | 0.00 | 91 | 999.7 |
| 20260507122035 | 55 | 256 | 9.0 | 16.0 | 0.00 | 0.03 | 0.00 | 91 | 999.9 |
| 20260507121534 | 55 | 250 | 9.0 | 17.0 | 0.00 | 0.03 | 0.00 | 91 | 1000.1 |
| 20260507121031 | 55 | 246 | 8.0 | 17.0 | 0.00 | 0.03 | 0.00 | 92 | 1000.4 |
| 20260507120530 | 55 | 240 | 8.0 | 19.0 | 0.00 | 0.03 | 0.00 | 93 | 1000.4 |
| 20260507120028 | 56 | 250 | 9.0 | 16.0 | 0.00 | 0.03 | 0.00 | 93 | 1000.5 |
| 20260507115526 | 56 | 256 | 7.0 | 23.0 | 0.00 | 0.03 | 0.00 | 94 | 1000.5 |
| 20260507115023 | 56 | 247 | 10.0 | 18.0 | 0.00 | 0.03 | 0.00 | 97 | 1000.4 |
| 20260507114522 | 56 | 264 | 7.0 | 13.0 | 0.00 | 0.03 | 0.00 | 99 | 1000.3 |
| 20260507114020 | 56 | 264 | 7.0 | 14.0 | 0.00 | 0.03 | 0.00 | 99 | 1000.0 |
| 20260507113518 | 56 | 246 | 7.0 | 13.0 | 0.00 | 0.03 | 0.00 | 99 | 999.6 |
| 20260507113036 | 56 | 259 | 7.0 | 16.0 | 0.00 | 0.03 | 0.00 | 99 | 999.8 |
| 20260507112534 | 56 | 249 | 4.0 | 9.0 | 0.00 | 0.03 | 0.00 | 99 | 999.8 |
| 20260507112032 | 55 | 252 | 3.0 | 9.0 | 0.00 | 0.03 | 0.00 | 99 | 999.7 |
| 20260507111530 | 55 | 259 | 4.0 | 13.0 | 0.00 | 0.03 | 0.00 | 99 | 999.6 |
| 20260507111028 | 55 | 245 | 4.0 | 10.0 | 0.00 | 0.03 | 0.00 | 99 | 999.4 |
| 20260507110526 | 55 | 246 | 4.0 | 10.0 | 0.00 | 0.03 | 0.00 | 99 | 999.5 |
| 20260507110023 | 55 | 245 | 3.0 | 8.0 | 0.00 | 0.03 | 0.00 | 99 | 999.5 |
| 20260507105522 | 55 | 233 | 3.0 | 8.0 | 0.00 | 0.03 | 0.00 | 99 | 999.8 |
| 20260507105021 | 55 | 250 | 4.0 | 10.0 | 0.00 | 0.03 | 0.00 | 99 | 999.9 |
| 20260507104518 | 55 | 249 | 3.0 | 8.0 | 0.00 | 0.03 | 0.00 | 99 | 1000.0 |
| 20260507104016 | 55 | 255 | 3.0 | 8.0 | 0.00 | 0.03 | 0.00 | 99 | 1000.0 |
| 20260507103535 | 55 | 233 | 3.0 | 7.0 | 0.00 | 0.03 | 0.00 | 99 | 1000.1 |
| 20260507103033 | 55 | 237 | 3.0 | 8.0 | 0.00 | 0.03 | 0.00 | 99 | 1000.0 |
| 20260507102530 | 55 | 255 | 4.0 | 9.0 | 0.00 | 0.03 | 0.00 | 99 | 1000.1 |
| 20260507102028 | 55 | 247 | 4.0 | 9.0 | 0.00 | 0.03 | 0.00 | 99 | 1000.2 |
| 20260507101527 | 54 | 253 | 4.0 | 9.0 | 0.00 | 0.03 | 0.00 | 99 | 1000.4 |
| 20260507101025 | 54 | 253 | 4.0 | 9.0 | 0.00 | 0.03 | 0.00 | 99 | 1000.6 |
| 20260507100523 | 54 | 241 | 3.0 | 8.0 | 0.00 | 0.03 | 0.00 | 99 | 1000.6 |
| 20260507100021 | 54 | 235 | 3.0 | 8.0 | 0.00 | 0.03 | 0.00 | 99 | 1000.7 |
| 20260507095520 | 54 | 231 | 3.0 | 9.0 | 0.00 | 0.03 | 0.00 | 99 | 1000.7 |
| 20260507095018 | 54 | 232 | 3.0 | 8.0 | 0.00 | 0.03 | 0.00 | 99 | 1000.6 |
| 20260507094516 | 54 | 242 | 4.0 | 7.0 | 0.00 | 0.03 | 0.00 | 99 | 1000.9 |
| 20260507094035 | 54 | 245 | 3.0 | 8.0 | 0.00 | 0.03 | 0.00 | 98 | 1000.8 |
| 20260507093533 | 54 | 240 | 3.0 | 7.0 | 0.00 | 0.03 | 0.00 | 98 | 1000.7 |
| 20260507093031 | 55 | 239 | 4.0 | 8.0 | 0.00 | 0.03 | 0.00 | 98 | 1000.7 |
| 20260507092529 | 55 | 231 | 3.0 | 7.0 | 0.00 | 0.03 | 0.00 | 98 | 1000.8 |
| 20260507092027 | 54 | 254 | 3.0 | 9.0 | 0.00 | 0.03 | 0.00 | 98 | 1000.8 |
| 20260507091525 | 54 | 253 | 4.0 | 8.0 | 0.00 | 0.03 | 0.00 | 98 | 1000.8 |
| 20260507091023 | 54 | 255 | 5.0 | 10.0 | 0.00 | 0.03 | 0.00 | 98 | 1001.0 |
| 20260507090522 | 54 | 248 | 5.0 | 10.0 | 0.00 | 0.03 | 0.00 | 98 | 1001.1 |
| 20260507090020 | 54 | 248 | 5.0 | 10.0 | 0.00 | 0.03 | 0.00 | 98 | 1001.4 |
| 20260507085519 | 54 | 245 | 4.0 | 10.0 | 0.00 | 0.03 | 0.00 | 98 | 1001.5 |
| 20260507085016 | 54 | 246 | 5.0 | 10.0 | 0.00 | 0.03 | 0.00 | 98 | 1001.3 |
| 20260507084535 | 54 | 254 | 6.0 | 10.0 | 0.00 | 0.03 | 0.00 | 99 | 1001.4 |
| 20260507084033 | 54 | 254 | 6.0 | 13.0 | 0.00 | 0.03 | 0.00 | 99 | 1001.2 |
| 20260507083531 | 54 | 234 | 4.0 | 10.0 | 0.00 | 0.03 | 0.00 | 99 | 1001.0 |
| 20260507083030 | 54 | 244 | 4.0 | 9.0 | 0.00 | 0.03 | 0.00 | 99 | 1001.0 |
| 20260507082528 | 54 | 256 | 6.0 | 13.0 | 0.00 | 0.03 | 0.00 | 99 | 1000.8 |
| 20260507082026 | 54 | 259 | 7.0 | 14.0 | 0.00 | 0.03 | 0.00 | 99 | 1000.8 |
| 20260507081524 | 54 | 258 | 7.0 | 11.0 | 0.00 | 0.03 | 0.00 | 99 | 1000.8 |
| 20260507081023 | 54 | 258 | 6.0 | 13.0 | 0.00 | 0.03 | 0.00 | 98 | 1000.6 |
| 20260507080520 | 54 | 254 | 6.0 | 10.0 | 0.00 | 0.03 | 0.00 | 98 | 1000.6 |
| 20260507080019 | 54 | 248 | 4.0 | 9.0 | 0.00 | 0.03 | 0.00 | 99 | 1000.7 |
| 20260507075517 | 54 | 242 | 4.0 | 9.0 | 0.00 | 0.03 | 0.00 | 99 | 1000.5 |
| 20260507075036 | 54 | 255 | 4.0 | 7.0 | 0.00 | 0.03 | 0.00 | 99 | 1000.7 |
| 20260507074534 | 54 | 259 | 4.0 | 8.0 | 0.00 | 0.03 | 0.00 | 99 | 1000.5 |
| 20260507074032 | 54 | 250 | 4.0 | 8.0 | 0.00 | 0.03 | 0.00 | 99 | 1000.4 |
| 20260507073530 | 54 | 249 | 5.0 | 9.0 | 0.00 | 0.03 | 0.00 | 99 | 1000.2 |
| 20260507073028 | 54 | 244 | 4.0 | 8.0 | 0.00 | 0.03 | 0.00 | 99 | 1000.3 |
| 20260507072527 | 54 | 248 | 3.0 | 6.0 | 0.00 | 0.03 | 0.00 | 99 | 1000.5 |
| 20260507072025 | 54 | 251 | 4.0 | 7.0 | 0.00 | 0.03 | 0.00 | 99 | 1000.8 |
| 20260507071528 | 54 | 248 | 3.0 | 8.0 | 0.00 | 0.03 | 0.00 | 99 | 1001.0 |
| 20260507071021 | 54 | 252 | 4.0 | 7.0 | 0.00 | 0.03 | 0.00 | 99 | 1001.3 |
| 20260507070519 | 54 | 248 | 4.0 | 7.0 | 0.00 | 0.03 | 0.00 | 99 | 1001.4 |
| 20260507070018 | 54 | 251 | 3.0 | 8.0 | 0.00 | 0.03 | 0.00 | 99 | 1001.4 |
| 20260507065516 | 54 | 250 | 5.0 | 10.0 | 0.00 | 0.03 | 0.00 | 99 | 1001.4 |
| 20260507065034 | 54 | 249 | 5.0 | 9.0 | 0.00 | 0.03 | 0.00 | 99 | 1001.2 |
| 20260507064533 | 54 | 259 | 4.0 | 8.0 | 0.00 | 0.03 | 0.00 | 99 | 1001.3 |
| 20260507064030 | 54 | 257 | 4.0 | 7.0 | 0.00 | 0.03 | 0.00 | 99 | 1001.1 |
| 20260507063529 | 54 | 252 | 2.0 | 6.0 | 0.00 | 0.03 | 0.00 | 99 | 1001.4 |
| 20260507063027 | 54 | 274 | 1.0 | 6.0 | 0.00 | 0.03 | 0.00 | 99 | 1001.7 |
| 20260507062525 | 54 | 271 | 2.0 | 3.0 | 0.00 | 0.03 | 0.00 | 99 | 1001.7 |
| 20260507062024 | 54 | 290 | 1.0 | 2.0 | 0.00 | 0.03 | 0.00 | 99 | 1001.7 |
| 20260507061521 | 54 | 264 | 0.0 | 1.0 | 0.00 | 0.03 | 0.00 | 99 | 1001.5 |
| 20260507061020 | 54 | 269 | 0.0 | 2.0 | 0.00 | 0.03 | 0.00 | 99 | 1001.4 |
| 20260507060518 | 54 | 269 | 0.0 | 3.0 | 0.00 | 0.03 | 0.00 | 99 | 1001.4 |
| 20260507060016 | 54 | 0.0 | 0.0 | 0.00 | 0.03 | 0.00 | 99 | 1001.4 | |
| 20260507055534 | 54 | 0.0 | 0.0 | 0.00 | 0.03 | 0.00 | 99 | 1001.3 | |
| 20260507055033 | 54 | 274 | 1.0 | 4.0 | 0.00 | 0.03 | 0.00 | 99 | 1001.1 |
| 20260507054531 | 54 | 264 | 1.0 | 4.0 | 0.00 | 0.03 | 0.00 | 99 | 1000.9 |
| 20260507054029 | 54 | 270 | 1.0 | 4.0 | 0.00 | 0.03 | 0.00 | 99 | 1000.6 |
| 20260507053527 | 54 | 266 | 0.0 | 3.0 | 0.00 | 0.03 | 0.00 | 99 | 1000.1 |
| 20260507053026 | 55 | 256 | 0.0 | 2.0 | 0.00 | 0.03 | 0.00 | 99 | 999.7 |
| 20260507052524 | 55 | 219 | 0.0 | 1.0 | 0.00 | 0.03 | 0.00 | 99 | 999.8 |
| 20260507052022 | 55 | 219 | 0.0 | 4.0 | 0.00 | 0.03 | 0.00 | 99 | 999.8 |
| 20260507051521 | 55 | 213 | 0.0 | 3.0 | 0.00 | 0.03 | 0.00 | 99 | 999.8 |
| 20260507051018 | 55 | 219 | 1.0 | 6.0 | 0.00 | 0.03 | 0.00 | 99 | 999.6 |
| 20260507050517 | 55 | 222 | 2.0 | 4.0 | 0.00 | 0.03 | 0.00 | 99 | 999.9 |
| 20260507050035 | 55 | 228 | 2.0 | 3.0 | 0.00 | 0.03 | 0.00 | 99 | 1000.0 |
| 20260507045534 | 55 | 217 | 2.0 | 7.0 | 0.00 | 0.03 | 0.00 | 99 | 1000.4 |
| 20260507045031 | 55 | 231 | 1.0 | 4.0 | 0.00 | 0.03 | 0.00 | 98 | 1000.8 |
| 20260507044530 | 56 | 251 | 1.0 | 6.0 | 0.00 | 0.03 | 0.00 | 98 | 1001.1 |
| 20260507044028 | 56 | 243 | 0.0 | 3.0 | 0.00 | 0.03 | 0.00 | 98 | 1001.1 |
| 20260507043526 | 56 | 236 | 1.0 | 6.0 | 0.00 | 0.03 | 0.00 | 98 | 1000.6 |
| 20260507043024 | 56 | 257 | 1.0 | 3.0 | 0.00 | 0.03 | 0.00 | 98 | 1000.5 |
| 20260507042523 | 56 | 243 | 1.0 | 4.0 | 0.00 | 0.03 | 0.00 | 98 | 1000.5 |
| 20260507042021 | 56 | 243 | 2.0 | 6.0 | 0.00 | 0.03 | 0.00 | 98 | 1000.4 |
| 20260507041519 | 56 | 229 | 3.0 | 8.0 | 0.00 | 0.03 | 0.00 | 98 | 1000.6 |
| 20260507041018 | 56 | 236 | 3.0 | 9.0 | 0.00 | 0.03 | 0.00 | 98 | 1000.6 |
| 20260507040536 | 56 | 212 | 7.0 | 16.0 | 0.00 | 0.03 | 0.00 | 98 | 1000.8 |
| 20260507040034 | 56 | 220 | 6.0 | 14.0 | 0.00 | 0.03 | 0.00 | 99 | 1000.9 |
| 20260507035532 | 56 | 240 | 5.0 | 14.0 | 0.00 | 0.03 | 0.00 | 99 | 1001.1 |
| 20260507035031 | 56 | 236 | 5.0 | 11.0 | 0.00 | 0.03 | 0.00 | 99 | 1001.0 |
| 20260507034529 | 56 | 242 | 5.0 | 10.0 | 0.00 | 0.03 | 0.00 | 98 | 1001.2 |
| 20260507034027 | 56 | 226 | 5.0 | 11.0 | 0.00 | 0.03 | 0.00 | 98 | 1001.4 |
| 20260507033525 | 56 | 242 | 4.0 | 13.0 | 0.00 | 0.03 | 0.00 | 98 | 1001.5 |
| 20260507033024 | 56 | 243 | 5.0 | 10.0 | 0.00 | 0.03 | 0.00 | 97 | 1001.8 |
| 20260507032522 | 56 | 241 | 5.0 | 15.0 | 0.00 | 0.03 | 0.00 | 97 | 1001.5 |
| 20260507032020 | 57 | 244 | 6.0 | 13.0 | 0.00 | 0.03 | 0.00 | 97 | 1001.2 |
| 20260507031518 | 57 | 233 | 7.0 | 15.0 | 0.00 | 0.03 | 0.00 | 96 | 1001.3 |
| 20260507031016 | 57 | 242 | 6.0 | 15.0 | 0.00 | 0.03 | 0.00 | 96 | 1001.5 |
| 20260507030534 | 57 | 244 | 4.0 | 10.0 | 0.00 | 0.03 | 0.00 | 96 | 1001.1 |
| 20260507030032 | 57 | 256 | 4.0 | 13.0 | 0.00 | 0.03 | 0.03 | 96 | 1001.2 |
| 20260507025531 | 57 | 253 | 9.0 | 16.0 | 0.00 | 0.03 | 0.03 | 95 | 1000.8 |
| 20260507025029 | 57 | 255 | 7.0 | 13.0 | 0.00 | 0.03 | 0.03 | 95 | 1000.4 |
| 20260507024527 | 57 | 246 | 4.0 | 10.0 | 0.00 | 0.03 | 0.03 | 94 | 1000.0 |
| 20260507024025 | 57 | 242 | 3.0 | 8.0 | 0.00 | 0.03 | 0.03 | 94 | 999.8 |
| 20260507023524 | 58 | 225 | 2.0 | 6.0 | 0.00 | 0.03 | 0.03 | 94 | 999.5 |
| 20260507023021 | 58 | 204 | 2.0 | 7.0 | 0.00 | 0.03 | 0.03 | 94 | 999.4 |
| 20260507022519 | 58 | 195 | 1.0 | 4.0 | 0.00 | 0.03 | 0.03 | 93 | 999.3 |
| 20260507022019 | 58 | 197 | 1.0 | 4.0 | 0.00 | 0.03 | 0.03 | 93 | 999.3 |
| 20260507021517 | 58 | 209 | 1.0 | 4.0 | 0.00 | 0.03 | 0.03 | 92 | 999.2 |
| 20260507021034 | 58 | 217 | 1.0 | 4.0 | 0.00 | 0.03 | 0.03 | 92 | 999.1 |
| 20260507020533 | 58 | 201 | 1.0 | 3.0 | 0.00 | 0.03 | 0.03 | 92 | 999.1 |
| 20260507020033 | 59 | 195 | 2.0 | 7.0 | 0.00 | 0.03 | 0.03 | 92 | 999.2 |
| 20260507015529 | 59 | 188 | 2.0 | 7.0 | 0.00 | 0.03 | 0.03 | 92 | 999.3 |
| 20260507015027 | 59 | 191 | 3.0 | 8.0 | 0.00 | 0.03 | 0.03 | 92 | 999.3 |
| 20260507014526 | 59 | 174 | 2.0 | 9.0 | 0.00 | 0.03 | 0.03 | 92 | 999.3 |
| 20260507014024 | 59 | 223 | 3.0 | 9.0 | 0.00 | 0.03 | 0.03 | 91 | 999.2 |
| 20260507013522 | 59 | 205 | 3.0 | 8.0 | 0.00 | 0.03 | 0.03 | 91 | 998.8 |
| 20260507012518 | 59 | 202 | 4.0 | 10.0 | 0.00 | 0.03 | 0.03 | 90 | 998.7 |
| 20260507012017 | 59 | 183 | 4.0 | 10.0 | 0.00 | 0.03 | 0.03 | 90 | 999.0 |
| 20260507011535 | 59 | 185 | 3.0 | 11.0 | 0.00 | 0.03 | 0.03 | 90 | 998.8 |
| 20260507011033 | 59 | 162 | 4.0 | 13.0 | 0.00 | 0.03 | 0.03 | 92 | 998.5 |
| 20260507010532 | 59 | 155 | 4.0 | 13.0 | 0.00 | 0.03 | 0.03 | 92 | 997.9 |
| 20260507010029 | 59 | 196 | 6.0 | 14.0 | 0.00 | 0.03 | 0.03 | 93 | 997.7 |
| 20260507005527 | 58 | 190 | 6.0 | 16.0 | 0.01 | 0.03 | 0.03 | 93 | 998.0 |
| 20260507005026 | 58 | 198 | 6.0 | 19.0 | 0.01 | 0.03 | 0.03 | 94 | 998.8 |
| 20260507004022 | 58 | 193 | 7.0 | 18.0 | 0.02 | 0.03 | 0.03 | 96 | 1000.0 |
| 20260507003520 | 58 | 211 | 9.0 | 23.0 | 0.02 | 0.03 | 0.03 | 96 | 1000.1 |
| 20260507003019 | 58 | 203 | 9.0 | 23.0 | 0.03 | 0.03 | 0.03 | 97 | 1000.3 |
| 20260507002517 | 58 | 209 | 9.0 | 21.0 | 0.03 | 0.03 | 0.03 | 97 | 1000.6 |
| 20260507002035 | 58 | 200 | 10.0 | 22.0 | 0.03 | 0.03 | 0.03 | 98 | 1001.3 |
| 20260507001533 | 57 | 202 | 9.0 | 18.0 | 0.03 | 0.03 | 0.03 | 98 | 1001.3 |
| 20260507001031 | 57 | 194 | 9.0 | 18.0 | 0.03 | 0.03 | 0.03 | 98 | 1001.3 |
| 20260507000529 | 58 | 212 | 12.0 | 27.0 | 0.02 | 0.03 | 0.03 | 98 | 1001.8 |
| 20260507000028 | 58 | 209 | 14.0 | 30.0 | 0.02 | 0.03 | 0.03 | 97 | 1002.8 |
| 20260506235526 | 58 | 217 | 14.0 | 33.0 | 0.02 | 0.02 | 0.02 | 97 | 1003.2 |
| 20260506235024 | 59 | 231 | 15.0 | 32.0 | 0.02 | 0.02 | 0.02 | 97 | 1003.0 |
| 20260506234522 | 59 | 223 | 13.0 | 27.0 | 0.01 | 0.02 | 0.02 | 98 | 1001.8 |
| 20260506234021 | 60 | 235 | 13.0 | 25.0 | 0.01 | 0.02 | 0.02 | 99 | 1001.9 |
| 20260506233519 | 60 | 239 | 7.0 | 18.0 | 0.01 | 0.01 | 0.01 | 98 | 1001.1 |
| 20260506233017 | 61 | 242 | 5.0 | 14.0 | 0.00 | 0.00 | 0.00 | 98 | 1000.4 |
| 20260506232535 | 61 | 239 | 7.0 | 13.0 | 0.00 | 0.00 | 0.00 | 98 | 1000.0 |
| 20260506232033 | 61 | 234 | 4.0 | 10.0 | 0.00 | 0.00 | 0.00 | 98 | 1000.0 |
| 20260506231532 | 61 | 214 | 4.0 | 11.0 | 0.00 | 0.00 | 0.00 | 98 | 999.9 |
| 20260506231030 | 61 | 208 | 2.0 | 9.0 | 0.00 | 0.00 | 0.00 | 98 | 999.6 |
| 20260506230527 | 61 | 87 | 4.0 | 11.0 | 0.00 | 0.00 | 0.00 | 98 | 999.1 |
| 20260506230027 | 62 | 98 | 4.0 | 9.0 | 0.00 | 0.00 | 0.00 | 98 | 998.8 |
| 20260506225524 | 62 | 93 | 5.0 | 9.0 | 0.00 | 0.00 | 0.00 | 98 | 998.3 |
| 20260506225022 | 62 | 86 | 1.0 | 4.0 | 0.00 | 0.00 | 0.00 | 98 | 998.3 |
| 20260506224521 | 62 | 132 | 1.0 | 3.0 | 0.00 | 0.00 | 0.00 | 98 | 998.5 |
| 20260506224018 | 62 | 182 | 2.0 | 6.0 | 0.00 | 0.00 | 0.00 | 97 | 998.5 |
| 20260506223535 | 62 | 189 | 3.0 | 9.0 | 0.00 | 0.00 | 0.00 | 97 | 998.8 |
| 20260506223034 | 63 | 225 | 4.0 | 8.0 | 0.00 | 0.00 | 0.00 | 96 | 999.1 |
| 20260506222531 | 65 | 243 | 5.0 | 11.0 | 0.00 | 0.00 | 0.00 | 97 | 999.2 |
| 20260506222029 | 65 | 205 | 3.0 | 6.0 | 0.00 | 0.00 | 0.00 | 98 | 999.5 |
| 20260506221527 | 66 | 219 | 4.0 | 10.0 | 0.00 | 0.00 | 0.00 | 99 | 999.9 |
| 20260506221025 | 67 | 221 | 1.0 | 9.0 | 0.00 | 0.00 | 0.00 | 99 | 1000.0 |
| 20260506220523 | 67 | 0.0 | 0.0 | 0.00 | 0.00 | 0.00 | 99 | 999.7 | |
| 20260506220021 | 67 | 0.0 | 0.0 | 0.00 | 0.00 | 0.00 | 99 | 999.7 | |
| 20260506215518 | 67 | 247 | 0.0 | 3.0 | 0.00 | 0.00 | 0.00 | 99 | 1000.2 |
| 20260506215016 | 67 | 255 | 2.0 | 8.0 | 0.00 | 0.00 | 0.00 | 99 | 1000.3 |
| 20260506214534 | 67 | 250 | 1.0 | 8.0 | 0.00 | 0.00 | 0.00 | 99 | 1000.3 |
| 20260506214032 | 67 | 204 | 4.0 | 8.0 | 0.00 | 0.00 | 0.00 | 99 | 1000.5 |
| 20260506213522 | 67 | 250 | 1.0 | 7.0 | 0.00 | 0.00 | 0.00 | 99 | 1000.1 |
| 20260506213020 | 67 | 0.0 | 0.0 | 0.00 | 0.00 | 0.00 | 99 | 1000.0 | |
| 20260506212518 | 67 | 40 | 1.0 | 4.0 | 0.00 | 0.00 | 0.00 | 99 | 1000.1 |
| 20260506212016 | 67 | 0.0 | 0.0 | 0.00 | 0.00 | 0.00 | 99 | 1000.2 | |
| 20260506211534 | 67 | 0.0 | 0.0 | 0.00 | 0.00 | 0.00 | 99 | 1000.1 | |
| 20260506211033 | 67 | 71 | 2.0 | 7.0 | 0.00 | 0.00 | 0.00 | 99 | 999.9 |
| 20260506210531 | 67 | 84 | 1.0 | 4.0 | 0.00 | 0.00 | 0.00 | 99 | 999.8 |
| 20260506210029 | 67 | 95 | 1.0 | 6.0 | 0.00 | 0.00 | 0.00 | 99 | 999.9 |
| 20260506205528 | 67 | 65 | 2.0 | 4.0 | 0.00 | 0.00 | 0.00 | 99 | 999.9 |
| 20260506205025 | 67 | 73 | 0.0 | 2.0 | 0.00 | 0.00 | 0.00 | 99 | 1000.0 |
| 20260506204524 | 67 | 53 | 1.0 | 4.0 | 0.00 | 0.00 | 0.00 | 99 | 1000.0 |
| 20260506204022 | 67 | 49 | 2.0 | 6.0 | 0.00 | 0.00 | 0.00 | 99 | 1000.1 |
| 20260506203520 | 67 | 54 | 3.0 | 7.0 | 0.00 | 0.00 | 0.00 | 99 | 1000.1 |
| 20260506203018 | 67 | 58 | 3.0 | 7.0 | 0.00 | 0.00 | 0.00 | 99 | 1000.0 |
| 20260506202516 | 67 | 58 | 1.0 | 4.0 | 0.00 | 0.00 | 0.00 | 99 | 1000.5 |
| 20260506202035 | 67 | 78 | 0.0 | 1.0 | 0.00 | 0.00 | 0.00 | 99 | 1000.8 |
| 20260506201533 | 67 | 57 | 1.0 | 3.0 | 0.00 | 0.00 | 0.00 | 99 | 1000.9 |
| 20260506201031 | 67 | 44 | 2.0 | 6.0 | 0.00 | 0.00 | 0.00 | 99 | 1000.9 |
| 20260506200529 | 67 | 64 | 1.0 | 4.0 | 0.00 | 0.00 | 0.00 | 99 | 1001.0 |
| 20260506200027 | 67 | 52 | 1.0 | 3.0 | 0.00 | 0.00 | 0.00 | 99 | 1001.2 |
| 20260506195525 | 67 | 65 | 1.0 | 3.0 | 0.00 | 0.00 | 0.00 | 99 | 1001.5 |
| 20260506195023 | 67 | 51 | 1.0 | 4.0 | 0.00 | 0.00 | 0.00 | 99 | 1001.3 |
| 20260506194522 | 67 | 52 | 2.0 | 4.0 | 0.00 | 0.00 | 0.00 | 99 | 1001.5 |
| 20260506194020 | 67 | 59 | 1.0 | 6.0 | 0.00 | 0.00 | 0.00 | 99 | 1001.3 |
| 20260506193518 | 67 | 57 | 4.0 | 7.0 | 0.00 | 0.00 | 0.00 | 99 | 1001.4 |
| 20260506193017 | 67 | 62 | 3.0 | 8.0 | 0.00 | 0.00 | 0.00 | 99 | 1001.5 |
| 20260506192535 | 66 | 47 | 3.0 | 10.0 | 0.00 | 0.00 | 0.00 | 99 | 1001.5 |
| 20260506192033 | 66 | 41 | 2.0 | 8.0 | 0.00 | 0.00 | 0.00 | 99 | 1001.5 |